| time (UTC) | temp C | wind direction | speed KPH | gust KPH | rain 1hr cm | rain 24hr cm | rain mn cm | humidity % | barometer mb |
| 20260905044553 | 28 | 140 | 4.8 | 14.5 | 0.00 | 0.00 | 0.00 | 72 | 1013.5 |
| 20260905044548 | 28 | 148 | 4.8 | 11.3 | 0.00 | 0.00 | 0.00 | 72 | 1015.1 |
| 20260905043047 | 28 | 174 | 6.4 | 16.1 | 0.00 | 0.00 | 0.00 | 70 | 1015.2 |
| 20260905041601 | 28 | 123 | 9.7 | 17.7 | 0.00 | 0.00 | 0.00 | 68 | 1013.5 |
| 20260905041556 | 28 | 182 | 8.0 | 17.7 | 0.00 | 0.00 | 0.00 | 69 | 1015.2 |
| 20260905040053 | 29 | 148 | 9.7 | 20.9 | 0.00 | 0.00 | 0.00 | 67 | 1013.4 |
| 20260905040046 | 29 | 90 | 9.7 | 17.7 | 0.00 | 0.00 | 0.00 | 68 | 1015.1 |
| 20260905034610 | 29 | 109 | 8.0 | 20.9 | 0.00 | 0.00 | 0.00 | 67 | 1013.4 |
| 20260905034554 | 29 | 146 | 8.0 | 20.9 | 0.00 | 0.00 | 0.00 | 68 | 1015.1 |
| 20260905033105 | 29 | 147 | 8.0 | 20.9 | 0.00 | 0.00 | 0.00 | 68 | 1013.2 |
| 20260905033045 | 29 | 122 | 9.7 | 20.9 | 0.00 | 0.00 | 0.00 | 68 | 1014.9 |
| 20260905031616 | 29 | 107 | 11.3 | 20.9 | 0.00 | 0.00 | 0.00 | 68 | 1012.9 |
| 20260905031545 | 29 | 105 | 9.7 | 20.9 | 0.00 | 0.00 | 0.00 | 68 | 1014.9 |
| 20260905030058 | 29 | 147 | 8.0 | 22.5 | 0.00 | 0.00 | 0.00 | 67 | 1012.9 |
| 20260905030045 | 29 | 98 | 8.0 | 22.5 | 0.00 | 0.00 | 0.00 | 68 | 1014.8 |
| 20260905024600 | 29 | 117 | 6.4 | 19.3 | 0.00 | 0.00 | 0.00 | 67 | 1012.6 |
| 20260905024545 | 29 | 122 | 9.7 | 19.3 | 0.00 | 0.00 | 0.00 | 68 | 1014.5 |
| 20260905023144 | 29 | 111 | 9.7 | 19.3 | 0.00 | 0.00 | 0.00 | 67 | 1014.3 |
| 20260905023055 | 29 | 102 | 9.7 | 19.3 | 0.00 | 0.00 | 0.00 | 66 | 1012.3 |
| 20260905021558 | 29 | 105 | 6.4 | 17.7 | 0.00 | 0.00 | 0.00 | 66 | 1012.2 |
| 20260905021550 | 29 | 112 | 4.8 | 17.7 | 0.00 | 0.00 | 0.00 | 67 | 1014.1 |
| 20260905020058 | 29 | 93 | 6.4 | 17.7 | 0.00 | 0.00 | 0.00 | 67 | 1012.0 |
| 20260905020043 | 29 | 86 | 4.8 | 17.7 | 0.00 | 0.00 | 0.00 | 68 | 1013.8 |
| 20260905014557 | 28 | 54 | 4.8 | 11.3 | 0.00 | 0.00 | 0.00 | 69 | 1011.9 |
| 20260905014542 | 28 | 73 | 4.8 | 11.3 | 0.00 | 0.00 | 0.00 | 69 | 1013.7 |
| 20260905013101 | 29 | 91 | 3.2 | 8.0 | 0.00 | 0.00 | 0.00 | 69 | 1011.8 |
| 20260905013041 | 29 | 90 | 3.2 | 8.0 | 0.00 | 0.00 | 0.00 | 69 | 1013.6 |
| 20260905011601 | 29 | 80 | 3.2 | 6.4 | 0.00 | 0.00 | 0.00 | 68 | 1011.7 |
| 20260905011544 | 29 | 81 | 3.2 | 6.4 | 0.00 | 0.00 | 0.00 | 69 | 1013.3 |
| 20260905010105 | 30 | 71 | 1.6 | 4.8 | 0.00 | 0.00 | 0.00 | 67 | 1011.8 |
| 20260905010040 | 30 | 71 | 1.6 | 4.8 | 0.00 | 0.00 | 0.00 | 68 | 1013.5 |
| 20260905004606 | 30 | 45 | 1.6 | 8.0 | 0.00 | 0.00 | 0.00 | 67 | 1011.7 |
| 20260905004546 | 30 | 45 | 1.6 | 8.0 | 0.00 | 0.00 | 0.00 | 67 | 1013.4 |
| 20260905003104 | 30 | 71 | 3.2 | 6.4 | 0.00 | 0.00 | 0.00 | 66 | 1011.6 |
| 20260905003039 | 30 | 71 | 1.6 | 6.4 | 0.00 | 0.00 | 0.00 | 67 | 1013.3 |
| 20260905001605 | 30 | 0 | 1.6 | 6.4 | 0.00 | 0.00 | 0.00 | 65 | 1011.6 |
| 20260905001549 | 30 | 85 | 1.6 | 4.8 | 0.00 | 0.00 | 0.00 | 66 | 1013.2 |
| 20260905000111 | 31 | 94 | 6.4 | 14.5 | 0.00 | 0.00 | 0.00 | 65 | 1011.3 |
| 20260905000039 | 31 | 94 | 4.8 | 14.5 | 0.00 | 0.00 | 0.00 | 65 | 1013.0 |
| 20260904234556 | 31 | 102 | 6.4 | 14.5 | 0.00 | 0.00 | 0.00 | 65 | 1011.3 |
| 20260904234541 | 31 | 80 | 6.4 | 14.5 | 0.00 | 0.00 | 0.00 | 65 | 1013.0 |
| 20260904233114 | 31 | 82 | 8.0 | 16.1 | 0.00 | 0.00 | 0.00 | 65 | 1011.2 |
| 20260904233043 | 31 | 71 | 8.0 | 16.1 | 0.00 | 0.00 | 0.00 | 65 | 1012.8 |
| 20260904231606 | 31 | 84 | 9.7 | 20.9 | 0.00 | 0.00 | 0.00 | 64 | 1011.0 |
| 20260904231545 | 31 | 92 | 8.0 | 20.9 | 0.00 | 0.00 | 0.00 | 65 | 1012.8 |
| 20260904230105 | 31 | 76 | 8.0 | 16.1 | 0.00 | 0.00 | 0.00 | 65 | 1011.3 |
| 20260904230035 | 31 | 79 | 6.4 | 16.1 | 0.00 | 0.00 | 0.00 | 65 | 1013.0 |
| 20260904224557 | 31 | 26 | 8.0 | 16.1 | 0.00 | 0.00 | 0.00 | 64 | 1011.4 |
| 20260904224545 | 31 | 23 | 6.4 | 16.1 | 0.00 | 0.00 | 0.00 | 65 | 1013.0 |
| 20260904223119 | 31 | 27 | 4.8 | 16.1 | 0.00 | 0.00 | 0.00 | 62 | 1011.6 |
| 20260904223033 | 31 | 37 | 6.4 | 16.1 | 0.00 | 0.00 | 0.00 | 62 | 1013.3 |
| 20260904221558 | 31 | 89 | 8.0 | 16.1 | 0.00 | 0.00 | 0.00 | 64 | 1011.8 |
| 20260904221530 | 31 | 89 | 6.4 | 16.1 | 0.00 | 0.00 | 0.00 | 65 | 1013.4 |
| 20260904220058 | 30 | 94 | 6.4 | 14.5 | 0.00 | 0.00 | 0.00 | 70 | 1012.0 |
| 20260904220030 | 30 | 76 | 4.8 | 14.5 | 0.00 | 0.00 | 0.00 | 70 | 1013.5 |
| 20260904214602 | 30 | 55 | 3.2 | 14.5 | 0.00 | 0.00 | 0.00 | 75 | 1012.1 |
| 20260904214528 | 30 | 51 | 3.2 | 14.5 | 0.00 | 0.00 | 0.00 | 75 | 1013.7 |
| 20260904213055 | 30 | 107 | 4.8 | 11.3 | 0.00 | 0.00 | 0.00 | 78 | 1012.2 |
| 20260904213028 | 30 | 104 | 4.8 | 9.7 | 0.00 | 0.00 | 0.00 | 79 | 1013.9 |
| 20260904211552 | 30 | 99 | 4.8 | 14.5 | 0.00 | 0.00 | 0.00 | 78 | 1012.4 |
| 20260904211525 | 30 | 80 | 3.2 | 14.5 | 0.00 | 0.00 | 0.00 | 79 | 1014.1 |
| 20260904210125 | 30 | 99 | 3.2 | 11.3 | 0.00 | 0.00 | 0.00 | 76 | 1012.4 |
| 20260904210024 | 30 | 103 | 4.8 | 9.7 | 0.00 | 0.00 | 0.00 | 76 | 1014.1 |
| 20260904204601 | 30 | 97 | 3.2 | 11.3 | 0.00 | 0.00 | 0.00 | 76 | 1012.5 |
| 20260904204525 | 30 | 93 | 4.8 | 9.7 | 0.00 | 0.00 | 0.00 | 76 | 1014.4 |
| 20260904203104 | 31 | 96 | 1.6 | 8.0 | 0.00 | 0.00 | 0.00 | 74 | 1012.8 |
| 20260904203023 | 31 | 96 | 1.6 | 8.0 | 0.00 | 0.00 | 0.00 | 75 | 1014.5 |
| 20260904201551 | 31 | 136 | 4.8 | 14.5 | 0.00 | 0.00 | 0.00 | 69 | 1012.8 |
| 20260904201522 | 31 | 111 | 3.2 | 14.5 | 0.00 | 0.00 | 0.00 | 69 | 1014.5 |
| 20260904200055 | 31 | 61 | 6.4 | 17.7 | 0.00 | 0.00 | 0.00 | 67 | 1012.8 |
| 20260904200023 | 31 | 96 | 6.4 | 17.7 | 0.00 | 0.00 | 0.00 | 68 | 1014.5 |
| 20260904194556 | 31 | 98 | 6.4 | 16.1 | 0.00 | 0.00 | 0.00 | 67 | 1012.9 |
| 20260904194521 | 31 | 106 | 4.8 | 16.1 | 0.00 | 0.00 | 0.00 | 68 | 1014.6 |
| 20260904193113 | 31 | 102 | 3.2 | 14.5 | 0.00 | 0.00 | 0.00 | 65 | 1013.0 |
| 20260904193020 | 31 | 90 | 3.2 | 14.5 | 0.00 | 0.00 | 0.00 | 66 | 1014.7 |
| 20260904191557 | 31 | 136 | 4.8 | 12.9 | 0.00 | 0.00 | 0.00 | 65 | 1013.1 |
| 20260904191524 | 31 | 128 | 4.8 | 12.9 | 0.00 | 0.00 | 0.00 | 66 | 1014.7 |
| 20260904190049 | 31 | 108 | 3.2 | 11.3 | 0.00 | 0.00 | 0.00 | 66 | 1013.2 |
| 20260904190031 | 31 | 100 | 3.2 | 9.7 | 0.00 | 0.00 | 0.00 | 67 | 1014.8 |
| 20260904184556 | 31 | 88 | 4.8 | 14.5 | 0.00 | 0.00 | 0.00 | 66 | 1013.2 |
| 20260904184519 | 31 | 130 | 3.2 | 12.9 | 0.00 | 0.00 | 0.00 | 66 | 1014.9 |
| 20260904183053 | 32 | 130 | 4.8 | 12.9 | 0.00 | 0.00 | 0.00 | 66 | 1013.5 |
| 20260904183023 | 32 | 117 | 4.8 | 12.9 | 0.00 | 0.00 | 0.00 | 67 | 1015.1 |
| 20260904181551 | 31 | 161 | 4.8 | 14.5 | 0.00 | 0.00 | 0.00 | 67 | 1013.5 |
| 20260904181527 | 31 | 128 | 6.4 | 12.9 | 0.00 | 0.00 | 0.00 | 68 | 1015.2 |
| 20260904180014 | 31 | 171 | 3.2 | 11.3 | 0.00 | 0.00 | 0.00 | 69 | 1015.2 |
| 20260904174613 | 31 | 159 | 1.6 | 12.9 | 0.00 | 0.00 | 0.00 | 69 | 1015.5 |
| 20260904174553 | 31 | 121 | 3.2 | 14.5 | 0.00 | 0.00 | 0.00 | 69 | 1013.9 |
| 20260904173056 | 31 | 142 | 6.4 | 14.5 | 0.00 | 0.00 | 0.00 | 70 | 1014.2 |
| 20260904173019 | 31 | 120 | 6.4 | 14.5 | 0.00 | 0.00 | 0.00 | 70 | 1015.6 |
| 20260904171558 | 30 | 188 | 6.4 | 12.9 | 0.00 | 0.00 | 0.00 | 71 | 1014.4 |
| 20260904171512 | 30 | 151 | 6.4 | 11.3 | 0.00 | 0.00 | 0.00 | 72 | 1015.8 |
| 20260904170101 | 30 | 138 | 4.8 | 14.5 | 0.00 | 0.00 | 0.00 | 72 | 1014.6 |
| 20260904170007 | 30 | 132 | 4.8 | 14.5 | 0.00 | 0.00 | 0.00 | 73 | 1016.0 |
| 20260904164553 | 30 | 150 | 3.2 | 11.3 | 0.00 | 0.00 | 0.00 | 73 | 1014.7 |
| 20260904164504 | 30 | 119 | 4.8 | 11.3 | 0.00 | 0.00 | 0.00 | 74 | 1016.1 |
| 20260904163052 | 30 | 105 | 4.8 | 11.3 | 0.00 | 0.00 | 0.00 | 75 | 1014.8 |
| 20260904163002 | 30 | 105 | 6.4 | 11.3 | 0.00 | 0.00 | 0.00 | 75 | 1016.1 |
| 20260904161610 | 30 | 145 | 4.8 | 12.9 | 0.00 | 0.00 | 0.00 | 76 | 1016.1 |
| 20260904154555 | 28 | 164 | 3.2 | 9.7 | 0.00 | 0.00 | 0.00 | 80 | 1016.0 |
| 20260904154552 | 28 | 183 | 1.6 | 11.3 | 0.00 | 0.00 | 0.00 | 80 | 1014.6 |
| 20260904153051 | 28 | 153 | 4.8 | 9.7 | 0.00 | 0.00 | 0.00 | 81 | 1016.0 |
| 20260904151558 | 28 | 229 | 3.2 | 14.5 | 0.00 | 0.00 | 0.00 | 83 | 1014.4 |
| 20260904151550 | 28 | 215 | 4.8 | 11.3 | 0.00 | 0.00 | 0.00 | 83 | 1015.8 |
| 20260904150056 | 27 | 128 | 4.8 | 12.9 | 0.00 | 0.00 | 0.00 | 85 | 1014.3 |
| 20260904150046 | 27 | 128 | 4.8 | 11.3 | 0.00 | 0.00 | 0.00 | 85 | 1015.7 |
| 20260904144609 | 27 | 110 | 4.8 | 20.9 | 0.00 | 0.00 | 0.00 | 85 | 1014.2 |
| 20260904144604 | 27 | 175 | 4.8 | 20.9 | 0.00 | 0.00 | 0.00 | 86 | 1015.8 |
| 20260904143103 | 27 | 59 | 8.0 | 17.7 | 0.00 | 0.00 | 0.00 | 86 | 1014.2 |
| 20260904143056 | 27 | 157 | 8.0 | 16.1 | 0.00 | 0.00 | 0.00 | 87 | 1015.9 |
| 20260904141559 | 27 | 145 | 6.4 | 19.3 | 0.00 | 0.00 | 0.00 | 87 | 1014.2 |
| 20260904141531 | 27 | 145 | 8.0 | 17.7 | 0.00 | 0.00 | 0.00 | 88 | 1015.9 |
| 20260904140058 | 26 | 171 | 4.8 | 17.7 | 0.00 | 0.00 | 0.00 | 88 | 1014.1 |
| 20260904140032 | 26 | 170 | 6.4 | 17.7 | 0.00 | 0.00 | 0.00 | 89 | 1015.8 |
| 20260904134602 | 26 | 139 | 4.8 | 17.7 | 0.00 | 0.00 | 0.00 | 89 | 1014.1 |
| 20260904134529 | 26 | 142 | 4.8 | 16.1 | 0.00 | 0.00 | 0.00 | 89 | 1015.7 |
| 20260904133105 | 26 | 111 | 4.8 | 16.1 | 0.00 | 0.00 | 0.00 | 89 | 1014.0 |
| 20260904133027 | 26 | 113 | 3.2 | 16.1 | 0.00 | 0.00 | 0.00 | 90 | 1015.6 |
| 20260904131556 | 26 | 134 | 9.7 | 19.3 | 0.00 | 0.00 | 0.00 | 89 | 1013.8 |
| 20260904131525 | 26 | 128 | 9.7 | 19.3 | 0.00 | 0.00 | 0.00 | 90 | 1015.3 |
| 20260904130058 | 26 | 157 | 4.8 | 12.9 | 0.00 | 0.00 | 0.00 | 89 | 1013.6 |
| 20260904130023 | 26 | 130 | 3.2 | 12.9 | 0.00 | 0.00 | 0.00 | 90 | 1015.1 |
| 20260904124602 | 26 | 129 | 3.2 | 12.9 | 0.00 | 0.00 | 0.00 | 89 | 1013.5 |
| 20260904124522 | 26 | 129 | 3.2 | 12.9 | 0.00 | 0.00 | 0.00 | 90 | 1015.0 |
| 20260904123056 | 26 | 174 | 3.2 | 14.5 | 0.00 | 0.00 | 0.00 | 89 | 1013.4 |
| 20260904123019 | 26 | 119 | 3.2 | 14.5 | 0.00 | 0.00 | 0.00 | 89 | 1014.8 |
| 20260904121553 | 26 | 138 | 4.8 | 16.1 | 0.00 | 0.00 | 0.00 | 89 | 1013.2 |
| 20260904121518 | 26 | 143 | 6.4 | 16.1 | 0.00 | 0.00 | 0.00 | 89 | 1014.6 |
| 20260904120056 | 26 | 115 | 3.2 | 14.5 | 0.00 | 0.00 | 0.00 | 89 | 1013.2 |
| 20260904120017 | 26 | 104 | 3.2 | 12.9 | 0.00 | 0.00 | 0.00 | 89 | 1014.5 |
| 20260904114557 | 26 | 139 | 4.8 | 12.9 | 0.00 | 0.00 | 0.00 | 88 | 1012.9 |
| 20260904114517 | 26 | 135 | 4.8 | 12.9 | 0.00 | 0.00 | 0.00 | 89 | 1014.5 |
| 20260904113054 | 26 | 0 | 3.2 | 14.5 | 0.00 | 0.00 | 0.00 | 88 | 1012.8 |
| 20260904113014 | 26 | 124 | 3.2 | 14.5 | 0.00 | 0.00 | 0.00 | 88 | 1014.4 |
| 20260904111553 | 26 | 155 | 1.6 | 8.0 | 0.00 | 0.00 | 0.00 | 88 | 1012.5 |
| 20260904111513 | 26 | 154 | 3.2 | 8.0 | 0.00 | 0.00 | 0.00 | 88 | 1014.1 |
| 20260904110101 | 26 | 176 | 0.0 | 6.4 | 0.00 | 0.00 | 0.00 | 87 | 1012.4 |
| 20260904110012 | 26 | 178 | 0.0 | 6.4 | 0.00 | 0.00 | 0.00 | 88 | 1014.0 |
| 20260904104555 | 26 | 0 | 3.2 | 12.9 | 0.00 | 0.00 | 0.00 | 87 | 1012.4 |
| 20260904104512 | 26 | 188 | 4.8 | 12.9 | 0.00 | 0.00 | 0.00 | 88 | 1014.1 |
| 20260904103103 | 26 | 0 | 1.6 | 14.5 | 0.00 | 0.00 | 0.00 | 87 | 1012.4 |
| 20260904103009 | 26 | 210 | 1.6 | 12.9 | 0.00 | 0.00 | 0.00 | 87 | 1014.2 |
| 20260904101554 | 26 | 146 | 1.6 | 12.9 | 0.00 | 0.00 | 0.00 | 86 | 1012.4 |
| 20260904101507 | 26 | 111 | 1.6 | 12.9 | 0.00 | 0.00 | 0.00 | 87 | 1014.1 |
| 20260904100056 | 26 | 197 | 6.4 | 17.7 | 0.00 | 0.00 | 0.00 | 86 | 1012.4 |
| 20260904100007 | 26 | 185 | 6.4 | 17.7 | 0.00 | 0.00 | 0.00 | 87 | 1014.2 |
| 20260904094556 | 26 | 167 | 4.8 | 19.3 | 0.00 | 0.00 | 0.00 | 86 | 1012.4 |
| 20260904094508 | 26 | 204 | 3.2 | 19.3 | 0.00 | 0.00 | 0.00 | 86 | 1014.1 |
| 20260904093055 | 26 | 156 | 4.8 | 16.1 | 0.00 | 0.00 | 0.00 | 86 | 1012.3 |
| 20260904093005 | 26 | 191 | 3.2 | 12.9 | 0.00 | 0.00 | 0.00 | 86 | 1014.0 |
| 20260904091557 | 26 | 169 | 4.8 | 16.1 | 0.00 | 0.00 | 0.00 | 86 | 1012.4 |
| 20260904091512 | 26 | 168 | 3.2 | 14.5 | 0.00 | 0.00 | 0.00 | 86 | 1014.1 |
| 20260904090049 | 26 | 133 | 6.4 | 14.5 | 0.00 | 0.00 | 0.00 | 85 | 1012.3 |
| 20260904090009 | 26 | 165 | 4.8 | 14.5 | 0.00 | 0.00 | 0.00 | 86 | 1014.1 |
| 20260904084602 | 26 | 149 | 6.4 | 17.7 | 0.00 | 0.00 | 0.00 | 85 | 1012.4 |
| 20260904084502 | 26 | 147 | 6.4 | 17.7 | 0.00 | 0.00 | 0.00 | 85 | 1014.1 |
| 20260904083103 | 26 | 126 | 6.4 | 16.1 | 0.00 | 0.00 | 0.00 | 85 | 1014.1 |
| 20260904081600 | 26 | 173 | 3.2 | 6.4 | 0.00 | 0.00 | 0.00 | 85 | 1014.2 |
| 20260904081555 | 26 | 0 | 3.2 | 9.7 | 0.00 | 0.00 | 0.00 | 84 | 1012.4 |
| 20260904080059 | 26 | 186 | 8.0 | 14.5 | 0.00 | 0.00 | 0.00 | 85 | 1014.1 |
| 20260904080048 | 26 | 153 | 4.8 | 19.3 | 0.00 | 0.00 | 0.00 | 84 | 1012.5 |
| 20260904074606 | 27 | 136 | 4.8 | 12.9 | 0.00 | 0.00 | 0.00 | 84 | 1014.3 |
| 20260904073055 | 27 | 143 | 4.8 | 16.1 | 0.00 | 0.00 | 0.00 | 84 | 1014.5 |
| 20260904071656 | 27 | 119 | 4.8 | 11.3 | 0.00 | 0.00 | 0.00 | 83 | 1014.7 |
| 20260904071623 | 27 | 152 | 3.2 | 17.7 | 0.00 | 0.00 | 0.00 | 83 | 1013.0 |
| 20260904070113 | 27 | 157 | 3.2 | 16.1 | 0.00 | 0.00 | 0.00 | 82 | 1012.8 |
| 20260904070106 | 27 | 187 | 3.2 | 14.5 | 0.00 | 0.00 | 0.00 | 83 | 1014.6 |
| 20260904064606 | 27 | 163 | 4.8 | 14.5 | 0.00 | 0.00 | 0.00 | 82 | 1012.8 |
| 20260904063056 | 27 | 137 | 4.8 | 19.3 | 0.00 | 0.00 | 0.00 | 82 | 1013.0 |
| 20260904063054 | 27 | 172 | 8.0 | 16.1 | 0.00 | 0.00 | 0.00 | 82 | 1014.7 |
| 20260904061551 | 27 | 142 | 9.7 | 19.3 | 0.00 | 0.00 | 0.00 | 82 | 1013.0 |
| 20260904061549 | 27 | 174 | 8.0 | 19.3 | 0.00 | 0.00 | 0.00 | 82 | 1014.7 |
| 20260904060100 | 27 | 168 | 8.0 | 25.7 | 0.00 | 0.00 | 0.00 | 81 | 1013.0 |
| 20260904060048 | 27 | 269 | 8.0 | 25.7 | 0.00 | 0.00 | 0.00 | 82 | 1014.7 |
| 20260904054556 | 27 | 182 | 8.0 | 24.1 | 0.00 | 0.00 | 0.00 | 81 | 1013.1 |
| 20260904054546 | 27 | 159 | 8.0 | 22.5 | 0.00 | 0.00 | 0.00 | 81 | 1014.8 |
| 20260904053104 | 27 | 173 | 8.0 | 17.7 | 0.00 | 0.00 | 0.00 | 80 | 1013.1 |
| 20260904053055 | 27 | 159 | 8.0 | 17.7 | 0.00 | 0.00 | 0.00 | 80 | 1014.7 |
| 20260904051554 | 27 | 153 | 8.0 | 24.1 | 0.00 | 0.00 | 0.00 | 79 | 1013.1 |
| 20260904051542 | 27 | 121 | 4.8 | 20.9 | 0.00 | 0.00 | 0.00 | 80 | 1014.7 |
| 20260904050056 | 27 | 198 | 11.3 | 19.3 | 0.00 | 0.00 | 0.00 | 78 | 1013.0 |
| 20260904050042 | 27 | 164 | 9.7 | 20.9 | 0.00 | 0.00 | 0.00 | 79 | 1014.7 |